FENGYUN 1C DEB, 30671

Orbit data source: Space-Track

FENGYUN 1C DEB, 30671 is space debris in SSO originally from a launch on Mon, 10 May 1999 UTC launched from the Taiyaun Space Center, China (TSC). Fengyun 1C debris stems from the Chinese weather satellite Fengyun-1C, which was intentionally destroyed by a Chinese anti-satellite missile in 2007. This event dramatically increased the amount of space debris, with thousands of trackable fragments posing hazards to satellites and human spaceflight. The Fengyun 1C debris cloud has become a focal point in discussions about space sustainability and the need for international regulations to prevent the creation of new debris.

Loading next visibility...
Identifier
30671, 1999-025AQD
Orbit
SSO
Country
Flag of CNCN / PRC
Related business
Manufacturer
Unknown
Mission
Spacecraft
Bus & Motor
Unknown
Mass
Unknown
Launch date (UTC)
1999-05-10 (27 years ago)
Launch vehicle
Unknown
Launch site
Taiyaun Space Center, China (TSC)
Object type
Payload
Rocket body
Debris
Shape & HBR
Unknown shape, 0.1 m
Radar Cross Section
Small (<0.1 m²)

Expand to show TLE details & history
Last TLE update: 15 hours ago

TLE from 15 hours ago
0 FENGYUN 1C DEB
1 30671U 99025AQD 26071.13777524  .00002172  00000-0  15131-2 0  9999
2 30671  99.2406 141.1719 0128871 149.5805 277.8129 13.95841312964420
Epoch: 2026-03-12T03:18Z
TLE epoch observation values (Epoch: 2026-03-12T03:18:23.780Z)
Latitude
64.40319°
Longitude
-97.96401°
Altitude
907.7 km
Speed
7.41 km/s
True Right ascension
08h 05m 42s
True Declination
64° 16' 18"
Sunlit
Object was in daylight at epoch
Visualization orbit readout
Latitude
Unknown
Longitude
Unknown
Altitude
Unknown
Speed
Unknown
Apparent Right ascension
Unknown
Apparent Declination
Unknown
Sunlit
N/A
Visualization observer readout
Local Sidereal Time
22:47:29
Azimuth
Unknown
Elevation
Unknown
Doppler factor
Unknown
Orbital elements
Apogee altitude
999.312 km
Perigee altitude
811.584 km
Semi-major axis
7,283.585 km
Eccentricity
0.01289
Inclination
99.2406°
RAAN
141.1719°
Arg. of periapsis
149.5805°
True anomaly
276.3468°
Mean anomaly
277.8129°
Eccentric anomaly
277.08015°
Mean motion
3.49161 °/min
Orbital period
103.1 mins
BSTAR
0.0015131
Loading maneuver chart data...
Computing Atmospheric mass density...

Documentation

Showing up to 5 results
|